This is the latest recevied weather packets stored in our database for station/object KA8DUX-2. If no packets are shown the sender has not sent any weather packets the latest 10 day(s).
| Time | Temp. | Humidity | Pressure | Rain* | Wind** | Luminosity | Snow |
|---|---|---|---|---|---|---|---|
| 1777672071 | 7.22° C | 60% | 1014.9 hPa | 0 mm | - | 52 W/m² | - |
| 1777671768 | 7.22° C | 59% | 1014.7 hPa | 0 mm | - | 58 W/m² | - |
| 1777671464 | 7.22° C | 58% | 1014.4 hPa | 0 mm | - | 82 W/m² | - |
| 1777671160 | 7.22° C | 60% | 1014.5 hPa | 0 mm | - | 110 W/m² | - |
| 1777670857 | 7.22° C | 58% | 1014.7 hPa | 0 mm | - | 104 W/m² | - |
| 1777670553 | 6.67° C | 60% | 1014.6 hPa | 0 mm | - | 91 W/m² | - |
| 1777670250 | 6.67° C | 60% | 1014.7 hPa | 0 mm | - | 77 W/m² | - |
| 1777669947 | 6.67° C | 60% | 1014.4 hPa | 0 mm | - | 70 W/m² | - |
| 1777669644 | 6.67° C | 60% | 1014.4 hPa | 0 mm | - | 70 W/m² | - |
| 1777669341 | 6.67° C | 61% | 1014.6 hPa | 0 mm | - | 61 W/m² | - |
| 1777669037 | 6.67° C | 60% | 1014.6 hPa | 0 mm | - | 58 W/m² | - |
| 1777668734 | 6.67° C | 61% | 1014.5 hPa | 0 mm | - | 67 W/m² | - |
| 1777668432 | 6.67° C | 63% | 1014.7 hPa | 0 mm | - | 73 W/m² | - |
| 1777668128 | 6.67° C | 62% | 1014.6 hPa | 0 mm | - | 70 W/m² | - |
| 1777667824 | 6.67° C | 62% | 1014.5 hPa | 0 mm | - | 55 W/m² | - |
| 1777667522 | 6.67° C | 60% | 1014.8 hPa | 0 mm | - | 51 W/m² | - |
| 1777667219 | 6.67° C | 61% | 1014.7 hPa | 0 mm | - | 59 W/m² | - |
| 1777666915 | 6.67° C | 60% | 1014.6 hPa | 0 mm | - | 65 W/m² | - |
| 1777666612 | 6.67° C | 59% | 1014.5 hPa | 0 mm | - | 71 W/m² | - |
| 1777666309 | 6.67° C | 59% | 1014.7 hPa | 0 mm | - | 71 W/m² | - |
| 1777666006 | 6.67° C | 60% | 1014.3 hPa | 0 mm | - | 89 W/m² | - |
| 1777665703 | 6.67° C | 60% | 1014.4 hPa | 0 mm | - | 111 W/m² | - |
| 1777665400 | 7.22° C | 61% | 1014.6 hPa | 0 mm | - | 99 W/m² | - |
| 1777665096 | 6.67° C | 61% | 1014.7 hPa | 0 mm | - | 89 W/m² | - |
| 1777664792 | 6.67° C | 61% | 1014.6 hPa | 0 mm | - | 74 W/m² | - |
* Rain latest hour (hover to see other rain measurements)
** Current wind speed in m/s (hover to see current wind gust speed)